Home   Weather   Schaffhausen   Past weeks

Flag for Switzerland Past Weather in Schaffhausen, Schaffhausen, Switzerland — Yesterday and Last 2 Weeks

Now
35 °F

Chilly.


Feels Like: 31 °F
Forecast: 21 / 40 °F
Wind: 5 mph from Northeast

Location: Zurich-Kloten

Current Time: Dec 4, 2016 at 7:26:35 pm

Latest Report: Dec 4, 2016 at 6:00 pm


Visibility: N/A

Pressure: 30.33 "Hg

Humidity: 82%

Dew Point: 30 °F

Location of SchaffhausenLocation

Past Weather in Schaffhausen — Graph

°F

Schaffhausen Temperature Yesterday

Maximum temperature yesterday: 39 °F (at 3:00 pm)
Minimum temperature yesterday: 31 °F (at 9:00 pm)
Average temperature yesterday: 36 °F

High & Low Weather Summary for the Past Weeks

 TemperatureHumidityPressure
High53 °F (Nov 23, 2:00 pm)100% (Nov 20, 12:00 am)30.65 "Hg (Nov 20, 12:00 am)
Low19 °F (Nov 30, 6:00 am)46% (Nov 28, 3:00 pm)29.62 "Hg (Nov 21, 1:00 pm)
Average38 °F84%30.13 "Hg
* Reported Nov 19 6:00 pm — Dec 4 6:00 pm, Schaffhausen, Weather by CustomWeather, © 2016

Note: Actual official high and low records may vary slightly from our data, if they occured in-between our weather recording intervals... More about our weather records

Advertising

Schaffhausen Weather History for the Previous 24 Hours

Scroll right to see more
 ConditionsComfort  
Time TempWeatherWind HumidityBarometerVisibility
6:00 pm
Sun, Dec 4
35 °FChilly.5 mph82%30.33 "HgN/A
5:00 pm36 °FChilly.3 mph78%30.32 "HgN/A
4:00 pm38 °FFog.3 mph74%30.31 "Hg6 mi
3:00 pm39 °FChilly.5 mph71%30.30 "HgN/A
2:00 pm39 °FChilly.2 mph71%30.31 "HgN/A
1:00 pm37 °FFog.3 mph74%30.32 "Hg6 mi
12:00 pm37 °FChilly.5 mph74%30.33 "HgN/A
11:00 am35 °FChilly.5 mph78%30.34 "HgN/A
10:00 am34 °FFog.5 mph80%30.34 "Hg5 mi
9:00 am33 °FChilly.2 mph83%30.33 "HgN/A
8:00 am32 °FChilly.5 mph88%30.32 "HgN/A
7:00 am32 °FFog.3 mph88%30.32 "Hg4 mi
6:00 am32 °FChilly.3 mph87%30.31 "HgN/A
5:00 am31 °FChilly.3 mph88%30.31 "HgN/A
4:00 am32 °FFog.3 mph83%30.30 "Hg5 mi
3:00 am32 °FChilly.3 mph85%30.30 "HgN/A
2:00 am32 °FChilly.5 mph83%30.30 "HgN/A
1:00 am32 °FFog.5 mph80%30.29 "Hg7 mi
12:00 am32 °FChilly.6 mph81%30.29 "HgN/A
11:00 pm
Sat, Dec 3
32 °FChilly.5 mph76%30.27 "HgN/A
10:00 pm32 °FOvercast.7 mph75%30.26 "Hg9 mi
9:00 pm31 °FChilly.6 mph78%30.26 "HgN/A
8:00 pm31 °FChilly.3 mph76%30.24 "HgN/A
7:00 pm34 °FOvercast.5 mph73%30.23 "Hg9 mi
Weather by CustomWeather, © 2016

See weather overviewHow to use our weather pages